GLOBAL-5

导读

GLOBAL-5卫星由美国于2023年3月24日8时发射,这颗卫星融入了先进航天技术,服务全球覆盖性观测与通信领域。它升空后拓展了人类对地观测维度,增强全球通信网络稳定性,为气候监测、灾害响应、导航服务等多个领域提供持续数据支撑,助力全球空间信息基础设施的升级完善。

基本信息
目录编号:
55983
目录名称:
GLOBAL-5
国际标识:
2023-041C
轨道中心:
EARTH
卫星名称:
GLOBAL-5
卫星全名:
--
卫星状态:
在轨 (已飞行1268 天)
发射日期:
2023-03-24 UTC
国别 :
美国 (US)
星等 :
--
该卫星已列入 空间交会检测服务 Space Conjunction Data Service (SCDS) ,当前飞行风险评估等级: 无高风险
轨道信息
数据来源 国际轨道数据
星历时间: 2026-09-11T19:44:26+0800
22小时前
查看轨道信息
半长轴: 6828.844km
偏心率: 0.0007893
轨道倾角: 42.000°
近地点辐角 236.392°
升交点赤经 58.019°
平近点角 123.617°
近地点: 445.316km
远地点: 456.098km
周期: 93.601分钟
每日圈数: 15.38445
详细信息
使用方式:
暂无
2D轨道图
3D轨道图
轨道高度分析图
轨道倾角分析图
轨道综合分析图
查看轨道综合分析图
与全量物体交会距离演化趋势
与全量物体交会风险概率演化趋势